Regional Weather Roundup
Issued by NWS Midland/Odessa, TX

Skip options and go directly to product.
Home | Oldest Version | Next Version | Current Version | All | Text Only | Save Text | Print | Product List | Glossary On

Skip product version selection by date and time.   
248
ASUS44 KMAF 160902
RWRMAF
MIDLAND AREA WEATHER ROUNDUP
NATIONAL WEATHER SERVICE MIDLAND TX
400 AM CDT WED APR 16 2014

...IN SOUTHWEST TEXAS AND SOUTHEAST NEW MEXICO...

CITY           SKY/WX    TMP DP  RH WIND       PRES   REMARKS
ALPINE         PTCLDY    51  11  19 W10       30.02F
ANDREWS        FAIR      49  13  23 S17       29.91F
ARTESIA        PTCLDY    45   9  23 S13       29.88F WCI  38
BIG SPRING     CLEAR     51  16  24 SE17      29.96F
CARLSBAD       CLOUDY    47   8  20 SE5       29.88F
DRYDEN           N/A     47  15  27 NE6       29.97F
FORT STOCKTON  PTCLDY    50  15  24 SE16      29.93F
GUAD PASS      PTCLDY    51  10  19 W9        29.97S
HOBBS          MOCLDY    46  10  23 S12       29.91S
MARFA          PTCLDY    34   3  27 N9        30.01F WCI  26
MIDLAND AIRPK  MOCLDY    50  14  23 S13       29.94S
MIDLAND INTL   MOCLDY    51  16  24 S18       29.92F
ODESSA         MOCLDY    51  14  22 S14G23    29.92F
PECOS          CLEAR     44  13  28 E6        29.88F
PRESIDIO       FAIR      57  13  17 N9        29.92F
SEMINOLE       MOCLDY    49  12  23 S14       29.91F
SNYDER         PTCLDY    44  13  27 S10       29.95S WCI  39
WINK           MOCLDY    51  14  22 SE16      29.88F
$$
...OTHER STATIONS IN TEXAS...

CITY           SKY/WX    TMP DP  RH WIND       PRES   REMARKS
ABILENE        PTCLDY    50  20  30 S15G23    29.96F
AMARILLO       MOCLDY    48   8  19 S22       29.83F
AUSTIN         CLEAR     35  32  88 CALM      30.12F
BROWNSVILLE    CLEAR     49  44  83 CALM      30.12F
CORPUS CHRISTI CLEAR     46  38  73 SE7       30.12F
DALLAS FTW     MOCLDY    46  30  53 SE8       30.06F
DEL RIO        CLEAR     50  19  29 SE13      30.03F
EL PASO        PTCLDY    56   4  12 CALM      29.90F
HOUSTON INT    CLEAR     43  36  76 CALM      30.16S
LUBBOCK        MOCLDY    48  10  21 S17       29.89F
SAN ANGELO     PTCLDY    50  20  30 S10       29.99F
SAN ANTONIO    CLEAR     47  32  56 S6        30.11F
WACO           CLEAR     48  32  53 S14       30.11S
WICHITA FALLS  NOT AVBL
$$
...OTHER LOCATIONS IN NEW MEXICO...

CITY           SKY/WX    TMP DP  RH WIND       PRES   REMARKS
ALAMAGORDO     PTCLDY    46   0  14 S7        29.92S
ALBUQUERQUE    PTCLDY    46   8  21 SE8       29.90F
CANNON AFB     CLEAR     42   5  21 SW10      29.85F WCI  36
CLOVIS         MOCLDY    45   9  23 SW15      29.88F WCI  38
HOLLOMAN AFB   PTCLDY    48   6  17 S5        29.90F
ROSWELL        PTCLDY    49   9  19 S17       29.86F
RUIDOSO        CLEAR     46   1  15 S6        30.00F
SANTA FE       CLEAR     40   8  26 W6        29.90F WCI  36
TRUTH OR CONSE CLEAR     46   6  19 W8        29.92F
TUCUMCARI      PTCLDY    53   6  15 SW22      29.79F
$$

USA.gov is the U.S. government's official web portal to all federal, state and local government web resources and services.